This is the latest recevied weather packets stored in our database for station/object W6JCZ-13. If no packets are shown the sender has not sent any weather packets the latest 10 day(s).
| Time | Temp. | Humidity | Pressure | Rain* | Wind** | Luminosity | Snow |
|---|---|---|---|---|---|---|---|
| 1778117716 | 23.89° C | 62% | 1014.9 hPa | 0 mm | - | - | - |
| 1778117116 | 23.89° C | 63% | 1014.8 hPa | 0 mm | - | - | - |
| 1778116516 | 23.89° C | 62% | 1014.7 hPa | 0 mm | - | - | - |
| 1778115916 | 23.89° C | 62% | 1014.8 hPa | 0 mm | - | - | - |
| 1778114716 | 23.89° C | 61% | 1014.9 hPa | 0 mm | - | - | - |
| 1778114116 | 24.44° C | 62% | 1014.9 hPa | 0 mm | - | - | - |
| 1778113516 | 24.44° C | 61% | 1014.9 hPa | 0 mm | - | - | - |
| 1778112916 | 25° C | 57% | 1015 hPa | 0 mm | - | - | - |
| 1778112316 | 25.56° C | 56% | 1015.1 hPa | 0 mm | - | - | - |
| 1778111716 | 25.56° C | 56% | 1015.1 hPa | 0 mm | - | - | - |
| 1778111116 | 25° C | 55% | 1015.1 hPa | 0 mm | - | - | - |
| 1778110516 | 25° C | 55% | 1015.2 hPa | 0 mm | - | - | - |
| 1778109916 | 25° C | 55% | 1015.5 hPa | 0 mm | - | - | - |
| 1778109316 | 25° C | 57% | 1015.6 hPa | 0 mm | - | - | - |
| 1778108716 | 25° C | 56% | 1015.7 hPa | 0 mm | - | - | - |
| 1778108116 | 24.44° C | 57% | 1015.8 hPa | 0 mm | - | - | - |
| 1778107516 | 24.44° C | 57% | 1016 hPa | 0 mm | - | - | - |
| 1778106916 | 24.44° C | 56% | 1016.2 hPa | 0 mm | - | - | - |
| 1778106316 | 23.89° C | 58% | 1016.3 hPa | 0 mm | - | - | - |
| 1778105716 | 23.89° C | 58% | 1016.6 hPa | 0 mm | - | - | - |
| 1778105116 | 23.89° C | 59% | 1016.8 hPa | 0 mm | - | - | - |
| 1778104516 | 24.44° C | 59% | 1016.9 hPa | 0 mm | - | - | - |
| 1778103916 | 23.89° C | 58% | 1017.1 hPa | 0 mm | - | - | - |
| 1778103315 | 23.89° C | 56% | 1017.2 hPa | 0 mm | - | - | - |
| 1778102716 | 23.33° C | 57% | 1017.2 hPa | 0 mm | - | - | - |
* Rain latest hour (hover to see other rain measurements)
** Current wind speed in m/s (hover to see current wind gust speed)